This is the latest recevied weather packets stored in our database for station/object SA7AHC. If no packets are shown the sender has not sent any weather packets the latest 10 day(s).
| Time | Temp. | Humidity | Pressure | Rain* | Wind** | Luminosity | Snow |
|---|---|---|---|---|---|---|---|
| 1788220561 | 13.89° C | 98% | 1008.8 hPa | 0 mm | - | 0 W/m² | - |
| 1788219962 | 13.89° C | 98% | 1008.8 hPa | 0.25 mm | - | 0 W/m² | - |
| 1788219364 | 13.89° C | 98% | 1008.8 hPa | 0.25 mm | - | 0 W/m² | - |
| 1788218761 | 13.89° C | 98% | 1008.8 hPa | 0.51 mm | - | 0 W/m² | - |
| 1788218161 | 14.44° C | 98% | 1008.9 hPa | 0.51 mm | - | 0 W/m² | - |
| 1788217563 | 14.44° C | 98% | 1009 hPa | 0.51 mm | - | 0 W/m² | - |
| 1788216961 | 14.44° C | 98% | 1009 hPa | 1.02 mm | - | 0 W/m² | - |
| 1788216354 | 14.44° C | 98% | 1009.3 hPa | 0.76 mm | - | 0 W/m² | - |
| 1788215750 | 14.44° C | 98% | 1009.3 hPa | 0.76 mm | - | 0 W/m² | - |
| 1788215148 | 14.44° C | 98% | 1009.3 hPa | 0.51 mm | - | 0 W/m² | - |
| 1788214548 | 14.44° C | 98% | 1009.4 hPa | 0.51 mm | - | 0 W/m² | - |
| 1788213948 | 14.44° C | 97% | 1009.3 hPa | 0.76 mm | - | 0 W/m² | - |
| 1788213344 | 14.44° C | 97% | 1009.3 hPa | 0.51 mm | - | 0 W/m² | - |
| 1788212742 | 14.44° C | 97% | 1009.3 hPa | 0.51 mm | - | 0 W/m² | - |
| 1788212136 | 14.44° C | 97% | 1009.4 hPa | 0.51 mm | - | 0 W/m² | - |
| 1788211531 | 14.44° C | 97% | 1009.3 hPa | 0.51 mm | - | 0 W/m² | - |
| 1788210930 | 13.89° C | 97% | 1009.1 hPa | 0.51 mm | - | 0 W/m² | - |
| 1788210329 | 13.89° C | 97% | 1009.3 hPa | 0.51 mm | - | 0 W/m² | - |
| 1788209729 | 13.89° C | 97% | 1009.3 hPa | 0.51 mm | - | 0 W/m² | - |
| 1788209130 | 13.89° C | 97% | 1009.1 hPa | 0.51 mm | - | 0 W/m² | - |
| 1788208534 | 13.89° C | 97% | 1009.1 hPa | 0.25 mm | - | 0 W/m² | - |
| 1788207934 | 13.89° C | 97% | 1009.1 hPa | 0.25 mm | - | 0 W/m² | - |
| 1788207329 | 13.33° C | 97% | 1009.4 hPa | 0 mm | - | 0 W/m² | - |
| 1788206729 | 13.33° C | 96% | 1009.4 hPa | 0 mm | - | 0 W/m² | - |
| 1788206130 | 13.33° C | 96% | 1009.4 hPa | 0 mm | - | 0 W/m² | - |
* Rain latest hour (hover to see other rain measurements)
** Current wind speed in m/s (hover to see current wind gust speed)